Decatur, IL

10:58 AM CST on February 10, 2016 (GMT -0600)
Decatur

Weather History for KDEC - June, 2013

Change the Weather History Date:

Sunday, June 16, 2013

  Actual Average Record
Temperature  
Mean Temperature 74 °F 72 °F  
Max Temperature 81 °F 83 °F 93 °F (2007)
Min Temperature 67 °F 62 °F 53 °F (1999)
Degree Days  
Heating Degree Days 0 0  
Month to date heating degree days 14 14  
Since 1 June heating degree days 14 14  
Since 1 July heating degree days 5419 5518  
Cooling Degree Days 9 8  
Month to date cooling degree days 88 96  
Year to date cooling degree days 200 183  
Since 1 June cooling degree days 88 96  
Growing Degree Days 24 (Base 50)    
Moisture  
Dew Point 67 °F    
Average Humidity 81    
Maximum Humidity 93    
Minimum Humidity 69    
Precipitation  
Precipitation 0.03 in 0.16 in 0.38 in (2004)
Month to date precipitation 2.19 2.49  
Year to date precipitation 20.50 16.94  
Sea Level Pressure  
Sea Level Pressure 29.96 in    
Wind  
Wind Speed 8 mph (SW)    
Max Wind Speed 18 mph    
Max Gust Speed 25 mph    
Visibility 10 miles    
Events Rain    
T = Trace of Precipitation, MM = Missing Value Source: NWS Daily Summary

Daily Weather History Graph

Daily Weather History Graph

Search for Another Location

Airport or City:

Trip Planner

Search our weather history database for the weather conditions in past years. The results will help you decide how hot, cold, wet, or windy it might be!

Date:

Astronomy

Jun. 16, 2013 Rise Set
Actual Time 5:26 AM CDT 8:25 PM CDT
Civil Twilight 4:53 AM CDT 8:58 PM CDT
Nautical Twilight 4:12 AM CDT 9:40 PM CDT
Astronomical Twilight 3:24 AM CDT 10:28 PM CDT
Moon 1:01 PM CDT (6/16) 12:31 AM CDT (6/16)
Length of Visible Light 16h 04m
Length of Day
14h 59m
Waxing Crescent, 50% of the Moon is Illuminated
Jun 16
Waxing Crescent
Jun 16
First Quarter
Jun 23
Full
Jun 29
Last Quarter
Jul 8
New

Hourly Weather History & Observations

Time (CDT) Temp. Heat Index Dew Point Humidity Pressure Visibility Wind Dir Wind Speed Gust Speed Precip Events Conditions
12:54 AM 66.9 °F - 64.9 °F 93% 29.99 in 10.0 mi Calm Calm - 0.01 in   Mostly Cloudy
1:54 AM 66.9 °F - 64.9 °F 93% 29.95 in 10.0 mi South 8.1 mph - 0.00 in Rain Light Rain
2:54 AM 66.9 °F - 64.0 °F 90% 29.93 in 10.0 mi SW 5.8 mph - 0.00 in Rain Light Rain
3:54 AM 66.9 °F - 64.0 °F 90% 29.93 in 10.0 mi Calm Calm - 0.02 in   Partly Cloudy
4:54 AM 66.9 °F - 64.0 °F 90% 29.95 in 10.0 mi SSW 4.6 mph - 0.00 in   Overcast
5:54 AM 66.9 °F - 64.0 °F 90% 29.97 in 10.0 mi SW 9.2 mph - 0.00 in   Overcast
6:54 AM 68.0 °F - 64.0 °F 87% 29.98 in 10.0 mi SW 8.1 mph - N/A   Overcast
7:54 AM 68.0 °F - 64.0 °F 87% 29.99 in 10.0 mi SW 6.9 mph - N/A   Overcast
8:54 AM 71.1 °F - 66.0 °F 84% 29.98 in 10.0 mi WSW 9.2 mph - 0.00 in   Overcast
9:54 AM 73.0 °F - 66.0 °F 79% 29.99 in 10.0 mi WSW 16.1 mph 23.0 mph 0.01 in   Overcast
10:54 AM 73.9 °F - 66.9 °F 79% 29.99 in 10.0 mi SSW 17.3 mph 25.3 mph N/A   Overcast
11:11 AM 73.4 °F - 66.2 °F 78% 30.00 in 10.0 mi SSW 13.8 mph 25.3 mph N/A   Overcast
11:54 AM 75.0 °F - 66.9 °F 76% 29.99 in 10.0 mi SW 13.8 mph - N/A   Overcast
12:54 PM 77.0 °F - 68.0 °F 74% 29.98 in 10.0 mi SSW 12.7 mph - N/A   Overcast
1:54 PM 78.1 °F - 68.0 °F 71% 29.96 in 10.0 mi SW 11.5 mph - N/A   Mostly Cloudy
2:49 PM 77.0 °F - 69.8 °F 78% 29.97 in 10.0 mi SW 6.9 mph - N/A   Overcast
2:54 PM 77.0 °F - 69.1 °F 76% 29.96 in 10.0 mi SW 9.2 mph - N/A   Overcast
3:10 PM 78.8 °F - 69.8 °F 74% 29.97 in 10.0 mi SW 5.8 mph - N/A   Overcast
3:54 PM 78.1 °F - 70.0 °F 76% 29.94 in 10.0 mi SW 8.1 mph - N/A   Overcast
4:54 PM 79.0 °F - 70.0 °F 74% 29.93 in 10.0 mi WSW 5.8 mph - N/A   Overcast
5:54 PM 81.0 °F 84.9 °F 71.1 °F 72% 29.93 in 10.0 mi WSW 6.9 mph - N/A   Mostly Cloudy
6:54 PM 80.1 °F 82.9 °F 69.1 °F 69% 29.93 in 10.0 mi WSW 6.9 mph - N/A   Scattered Clouds
7:54 PM 78.1 °F - 70.0 °F 76% 29.92 in 10.0 mi SW 3.5 mph - N/A   Scattered Clouds
8:54 PM 75.9 °F - 70.0 °F 82% 29.93 in 10.0 mi Calm Calm - N/A   Mostly Cloudy
9:02 PM 75.2 °F - 69.8 °F 83% 29.94 in 10.0 mi Calm Calm - N/A   Scattered Clouds
9:54 PM 73.9 °F - 70.0 °F 87% 29.94 in 8.0 mi South 4.6 mph - N/A   Clear
10:54 PM 73.0 °F - 70.0 °F 90% 29.96 in 7.0 mi WSW 3.5 mph - N/A   Clear
11:54 PM 71.1 °F - 69.1 °F 93% 29.94 in 5.0 mi SSW 3.5 mph - N/A   Clear